Regional Weather Roundup
Issued by NWS Cleveland, OH

Home | Current Version | Previous Version | Graphics & Text | Print | Product List | Glossary On
Versions: 1 2 3 4 5 6 7 8 9 10 11 12 13 14 15 16 17 18 19 20 21 22 23 24 25 26 27 28 29 30 31 32 33 34 35 36 37 38 39 40 41 42 43 44 45 46 47 48 49 50
431
ASUS41 KCLE 031302
RWRCLE
OHIO REGIONAL WEATHER ROUNDUP
NATIONAL WEATHER SERVICE CLEVELAND, OH
800 AM EST SAT DEC 03 2016

NOTE: "FAIR" INDICATES FEW OR NO CLOUDS BELOW 12,000 FEET WITH NO
SIGNIFICANT WEATHER AND/OR OBSTRUCTIONS TO VISIBILITY.

OHZ001>008-015>018-024>027-034-035-043-044-031400-
   NORTHWEST OHIO

CITY           SKY/WX    TMP DP  RH WIND       PRES   REMARKS
DEFIANCE       CLOUDY    36  28  73 CALM      30.33R
FINDLAY        CLOUDY    34  28  79 SW3       30.31S
TOLEDO EXPRESS CLOUDY    35  30  82 W7        30.31R WCI  29
TOLEDO EXEC    CLOUDY    36  31  82 W7        30.32R
LIMA           CLOUDY    35  26  69 W10       30.31S WCI  27
$$

OHZ009>014-019>023-028>033-038-089-031400-
   NORTHEAST OHIO

CITY           SKY/WX    TMP DP  RH WIND       PRES   REMARKS
CLE-HOPKINS    CLOUDY    38  29  70 SW6       30.31R
CLE-LAKEFRONT  CLOUDY    39  31  72 W13       30.29R
CUY CO. ARPT   CLOUDY    39  34  81 W14       30.28R
LORAIN-ELYRIA  CLOUDY    35  28  75 W9        30.31R WCI  28
ASHTABULA      CLOUDY    38  32  79 NW9       30.25R
AKRON-CANTON   LGT SNOW  34  29  82 W8        30.29R WCI  27
WOOSTER        CLOUDY    33  28  81 W6        30.30R WCI  28
MANSFIELD      CLOUDY    32  27  81 SW6       30.30R WCI  26
YOUNGSTOWN     CLOUDY    36  30  79 W9        30.25R
$$

OHZ042-051>053-060>062-070>072-077>081-031400-
  SOUTHWEST OHIO

CITY           SKY/WX    TMP DP  RH WIND       PRES   REMARKS
CINC-COVINGTON CLOUDY    37  34  89 W5        30.34R
CINC-LUNKEN    CLOUDY    39  33  79 W3        30.37R
HAMILTON       CLOUDY    38  33  82 W3        30.36S
DAYTON         CLOUDY    36  32  85 W7        30.33S
WRIGHT-PAT AFB NOT AVBL
DAYTON GENERAL CLOUDY    36  31  82 W3        30.33R
WILMINGTON     CLOUDY    36  32  85 W6        30.32S
$$

OHZ036-037-039>041-045>050-054>059-063>069-073>076-082>088-031400-
  CENTRAL AND SOUTHEAST OHIO

CITY           SKY/WX    TMP DP  RH WIND       PRES   REMARKS
COLUMBUS       CLOUDY    36  30  79 NW5       30.32S
OSU AIRPORT    CLOUDY    36  32  85 NW5       30.32S
BOLTON FIELD   CLOUDY    36  32  87 CALM      30.33S
RICKENBACK AFB CLOUDY    35  32  88 CALM      30.32F
NEWARK         CLOUDY    30  27  88 CALM      30.32S
MARION         CLOUDY    32  27  81 CALM      30.31S
LANCASTER      CLOUDY    36  32  85 CALM      30.33S
ZANESVILLE     CLOUDY    30  25  81 CALM      30.32S
NEW PHILLY     CLOUDY    35  29  78 W5        30.32
$$




USA.gov is the U.S. government's official web portal to all federal, state and local government web resources and services.